EN

Hourly Weather Abasolo

Today, 2 December, Wednesday

Time Temperature Precipitation Wind Pressure Humidity
00:00 +15°C° 0 mm 2 mps 756 mmHg 69%
01:00 +15°C° 0 mm 2 mps 755 mmHg 72%
02:00 +14°C° 0 mm 1 mps 755 mmHg 75%
03:00 +14°C° 0 mm 1 mps 755 mmHg 77%
04:00 +14°C° 0 mm 1 mps 755 mmHg 79%
05:00 +14°C° 0 mm 1 mps 755 mmHg 82%
06:00 +16°C° 0 mm 1 mps 755 mmHg 76%
07:00 +18°C° 0 mm 1 mps 755 mmHg 70%
08:00 +18°C° 0 mm 0 mps 755 mmHg 64%
09:00 +22°C° 0 mm 1 mps 756 mmHg 60%
10:00 +25°C° 0 mm 1 mps 756 mmHg 56%
11:00 +27°C° 0 mm 1 mps 756 mmHg 52%
12:00 +27°C° 0 mm 1 mps 755 mmHg 50%
13:00 +28°C° 0 mm 1 mps 755 mmHg 49%
14:00 +29°C° 0 mm 1 mps 754 mmHg 47%
15:00 +27°C° 0 mm 2 mps 754 mmHg 53%
16:00 +25°C° 0 mm 3 mps 755 mmHg 58%
17:00 +23°C° 0 mm 4 mps 755 mmHg 64%
18:00 +21°C° 0 mm 4 mps 756 mmHg 55%
19:00 +20°C° 0 mm 4 mps 757 mmHg 47%
20:00 +19°C° 0 mm 4 mps 758 mmHg 39%
21:00 +19°C° 0 mm 4 mps 758 mmHg 37%
22:00 +19°C° 0 mm 4 mps 758 mmHg 35%
23:00 +19°C° 0 mm 4 mps 759 mmHg 34%

Tomorrow, 3 December, Thursday

Time Temperature Precipitation Wind Pressure Humidity
00:00 +17°C° 0 mm 5 mps 759 mmHg 34%
01:00 +17°C° 0 mm 5 mps 758 mmHg 35%
02:00 +17°C° 0 mm 5 mps 758 mmHg 35%
03:00 +16°C° 0 mm 5 mps 759 mmHg 36%
04:00 +15°C° 0 mm 5 mps 759 mmHg 36%
05:00 +14°C° 0 mm 5 mps 759 mmHg 36%
06:00 +14°C° 0 mm 5 mps 760 mmHg 36%
07:00 +14°C° 0 mm 5 mps 761 mmHg 36%
08:00 +14°C° 0 mm 5 mps 761 mmHg 36%
09:00 +14°C° 0 mm 5 mps 761 mmHg 35%
10:00 +15°C° 0 mm 5 mps 761 mmHg 34%
11:00 +16°C° 0 mm 5 mps 761 mmHg 33%
12:00 +17°C° 0 mm 5 mps 760 mmHg 32%
13:00 +17°C° 0 mm 5 mps 759 mmHg 31%
14:00 +19°C° 0 mm 6 mps 758 mmHg 30%
15:00 +17°C° 0 mm 5 mps 759 mmHg 31%
16:00 +16°C° 0 mm 5 mps 759 mmHg 32%
17:00 +14°C° 0 mm 4 mps 759 mmHg 33%
18:00 +13°C° 0 mm 4 mps 760 mmHg 34%
19:00 +13°C° 0 mm 4 mps 760 mmHg 34%
20:00 +12°C° 0 mm 3 mps 761 mmHg 34%
21:00 +12°C° 0 mm 3 mps 761 mmHg 34%
22:00 +13°C° 0 mm 3 mps 761 mmHg 33%
23:00 +13°C° 0 mm 3 mps 762 mmHg 33%

Day after tomorrow, 4 December, Friday

Time Temperature Precipitation Wind Pressure Humidity
00:00 +12°C° 0 mm 3 mps 761 mmHg 35%
01:00 +12°C° 0 mm 3 mps 761 mmHg 37%
02:00 +11°C° 0 mm 3 mps 760 mmHg 38%
03:00 +12°C° 0 mm 2 mps 761 mmHg 39%
04:00 +12°C° 0 mm 2 mps 761 mmHg 40%
05:00 +12°C° 0 mm 2 mps 761 mmHg 41%
06:00 +12°C° 0 mm 3 mps 761 mmHg 40%
07:00 +12°C° 0 mm 3 mps 762 mmHg 39%
08:00 +13°C° 0 mm 4 mps 762 mmHg 38%
09:00 +15°C° 0 mm 4 mps 762 mmHg 37%
10:00 +17°C° 0 mm 4 mps 762 mmHg 35%
11:00 +18°C° 0 mm 4 mps 761 mmHg 34%
12:00 +19°C° 0 mm 4 mps 761 mmHg 34%
13:00 +19°C° 0 mm 4 mps 760 mmHg 34%
14:00 +20°C° 0 mm 4 mps 759 mmHg 35%
15:00 +18°C° 0 mm 4 mps 759 mmHg 39%
16:00 +17°C° 0 mm 3 mps 759 mmHg 42%
17:00 +15°C° 0 mm 2 mps 759 mmHg 46%
18:00 +15°C° 0 mm 2 mps 760 mmHg 47%
19:00 +14°C° 0 mm 1 mps 761 mmHg 47%
20:00 +14°C° 0 mm 1 mps 761 mmHg 47%
21:00 +14°C° 0 mm 1 mps 761 mmHg 49%
22:00 +14°C° 0 mm 1 mps 761 mmHg 50%
23:00 +14°C° 0 mm 1 mps 761 mmHg 51%

5 December, Saturday

Time Temperature Precipitation Wind Pressure Humidity
00:00 +13°C° 0 mm 1 mps 761 mmHg 56%
01:00 +13°C° 0 mm 1 mps 760 mmHg 61%
02:00 +12°C° 0 mm 1 mps 760 mmHg 66%
03:00 +12°C° 0 mm 1 mps 760 mmHg 65%
04:00 +12°C° 0 mm 1 mps 760 mmHg 64%
05:00 +12°C° 0 mm 1 mps 760 mmHg 63%
06:00 +13°C° 0 mm 2 mps 761 mmHg 57%
07:00 +15°C° 0 mm 2 mps 761 mmHg 51%
08:00 +16°C° 0 mm 3 mps 762 mmHg 45%
09:00 +17°C° 0 mm 3 mps 761 mmHg 42%
10:00 +18°C° 0 mm 3 mps 761 mmHg 39%
11:00 +19°C° 0 mm 3 mps 761 mmHg 37%
12:00 +20°C° 0 mm 4 mps 760 mmHg 37%
13:00 +20°C° 0 mm 4 mps 760 mmHg 37%
14:00 +20°C° 0 mm 5 mps 759 mmHg 36%
15:00 +19°C° 0 mm 4 mps 760 mmHg 37%
16:00 +18°C° 0 mm 4 mps 760 mmHg 38%
17:00 +17°C° 0 mm 4 mps 761 mmHg 39%
18:00 +17°C° 0 mm 4 mps 761 mmHg 38%
19:00 +16°C° 0 mm 3 mps 762 mmHg 38%
20:00 +16°C° 0 mm 3 mps 762 mmHg 37%
21:00 +16°C° 0 mm 3 mps 762 mmHg 37%
22:00 +15°C° 0 mm 2 mps 762 mmHg 37%
23:00 +15°C° 0 mm 2 mps 762 mmHg 37%

6 December, Sunday

Time Temperature Precipitation Wind Pressure Humidity
00:00 +15°C° 0 mm 2 mps 762 mmHg 37%
01:00 +15°C° 0 mm 1 mps 761 mmHg 38%
02:00 +15°C° 0 mm 1 mps 761 mmHg 38%
03:00 +15°C° 0 mm 1 mps 761 mmHg 38%
04:00 +15°C° 0 mm 1 mps 761 mmHg 38%
05:00 +15°C° 0 mm 1 mps 761 mmHg 38%
06:00 +16°C° 0 mm 1 mps 761 mmHg 38%
07:00 +16°C° 0 mm 1 mps 762 mmHg 38%
08:00 +16°C° 0 mm 1 mps 762 mmHg 38%
09:00 +19°C° 0 mm 1 mps 762 mmHg 35%
10:00 +18°C° 0 mm 0 mps 762 mmHg 33%
11:00 +19°C° 0 mm 0 mps 762 mmHg 31%
12:00 +21°C° 0 mm 1 mps 761 mmHg 31%
13:00 +22°C° 0 mm 1 mps 760 mmHg 30%
14:00 +21°C° 0 mm 2 mps 759 mmHg 30%
15:00 +20°C° 0 mm 2 mps 759 mmHg 34%
16:00 +19°C° 0 mm 2 mps 760 mmHg 37%
17:00 +17°C° 0 mm 2 mps 760 mmHg 41%
18:00 +18°C° 0 mm 1 mps 760 mmHg 42%
19:00 +16°C° 0 mm 1 mps 761 mmHg 43%
20:00 +14°C° 0 mm 0 mps 761 mmHg 44%
21:00 +14°C° 0 mm 0 mps 761 mmHg 45%
22:00 +14°C° 0 mm 1 mps 761 mmHg 46%
23:00 +13°C° 0 mm 1 mps 761 mmHg 48%

7 December, Monday

Time Temperature Precipitation Wind Pressure Humidity
00:00 +13°C° 0 mm 1 mps 760 mmHg 49%
01:00 +13°C° 0 mm 1 mps 760 mmHg 51%
02:00 +12°C° 0 mm 1 mps 760 mmHg 52%
03:00 +12°C° 0 mm 1 mps 760 mmHg 54%
04:00 +12°C° 0 mm 1 mps 760 mmHg 56%
05:00 +12°C° 0 mm 1 mps 760 mmHg 58%
06:00 +14°C° 0 mm 1 mps 760 mmHg 52%
07:00 +16°C° 0 mm 1 mps 761 mmHg 47%
08:00 +19°C° 0 mm 1 mps 761 mmHg 42%
09:00 +20°C° 0 mm 1 mps 761 mmHg 36%
10:00 +21°C° 0 mm 2 mps 761 mmHg 31%
11:00 +24°C° 0 mm 2 mps 761 mmHg 26%
12:00 +25°C° 0 mm 2 mps 760 mmHg 26%
13:00 +25°C° 0 mm 3 mps 760 mmHg 26%
14:00 +25°C° 0 mm 3 mps 759 mmHg 25%
15:00 +22°C° 0 mm 3 mps 760 mmHg 33%
16:00 +20°C° 0 mm 3 mps 760 mmHg 40%
17:00 +18°C° 0 mm 3 mps 760 mmHg 48%
18:00 +17°C° 0 mm 3 mps 761 mmHg 51%
19:00 +16°C° 0 mm 2 mps 761 mmHg 54%
20:00 +15°C° 0 mm 1 mps 762 mmHg 58%
21:00 +15°C° 0 mm 1 mps 762 mmHg 60%
22:00 +15°C° 0 mm 1 mps 762 mmHg 62%
23:00 +14°C° 0 mm 1 mps 763 mmHg 64%
Show more